Year,Month,Day,Hour,Minute,Value (Times are PST for temperature in C)
2014,09,04,00,00,9.60
2014,09,04,00,01,9.60
2014,09,04,00,02,9.60
2014,09,04,00,03,9.60
2014,09,04,00,04,9.60
2014,09,04,00,05,9.60
2014,09,04,00,06,9.60
2014,09,04,00,07,9.50
2014,09,04,00,08,9.50
2014,09,04,00,09,9.50
2014,09,04,00,10,9.50
2014,09,04,00,11,9.50
2014,09,04,00,12,9.50
2014,09,04,00,13,9.50
2014,09,04,00,14,9.50
2014,09,04,00,15,9.50
2014,09,04,00,16,9.50
2014,09,04,00,17,9.50
2014,09,04,00,18,9.40
2014,09,04,00,19,9.40
2014,09,04,00,20,9.40
2014,09,04,00,21,9.40
2014,09,04,00,22,9.40
2014,09,04,00,23,9.40
2014,09,04,00,24,9.40
2014,09,04,00,25,9.40
2014,09,04,00,26,9.50
2014,09,04,00,27,9.50
2014,09,04,00,28,9.50
2014,09,04,00,29,9.50
2014,09,04,00,30,9.50
2014,09,04,00,31,9.50
2014,09,04,00,32,9.50
2014,09,04,00,33,9.50
2014,09,04,00,34,9.40
2014,09,04,00,35,9.40
2014,09,04,00,36,9.40
2014,09,04,00,37,9.40
2014,09,04,00,38,9.40
2014,09,04,00,39,9.40
2014,09,04,00,40,9.40
2014,09,04,00,41,9.40
2014,09,04,00,42,9.40
2014,09,04,00,43,9.30
2014,09,04,00,44,9.30
2014,09,04,00,45,9.40
2014,09,04,00,46,9.40
2014,09,04,00,47,9.40
2014,09,04,00,48,9.40
2014,09,04,00,49,9.40
2014,09,04,00,50,9.40
2014,09,04,00,51,9.40
2014,09,04,00,52,9.40
2014,09,04,00,53,9.40
2014,09,04,00,54,9.40
2014,09,04,00,55,9.40
2014,09,04,00,56,9.40
2014,09,04,00,57,9.40
2014,09,04,00,58,9.30
2014,09,04,00,59,9.30
2014,09,04,01,00,9.30
2014,09,04,01,01,9.30
2014,09,04,01,02,9.30
2014,09,04,01,03,9.30
2014,09,04,01,04,9.30
2014,09,04,01,05,9.20
2014,09,04,01,06,9.20
2014,09,04,01,07,9.20
2014,09,04,01,08,9.20
2014,09,04,01,09,9.20
2014,09,04,01,10,9.20
2014,09,04,01,11,9.20
2014,09,04,01,12,9.20
2014,09,04,01,13,9.20
2014,09,04,01,14,9.20
2014,09,04,01,15,9.20
2014,09,04,01,16,9.20
2014,09,04,01,17,9.20
2014,09,04,01,18,9.20
2014,09,04,01,19,9.20
2014,09,04,01,20,9.20
2014,09,04,01,21,9.20
2014,09,04,01,22,9.20
2014,09,04,01,23,9.20
2014,09,04,01,24,9.10
2014,09,04,01,25,9.10
2014,09,04,01,26,9.10
2014,09,04,01,27,9.10
2014,09,04,01,28,9.10
2014,09,04,01,29,9.10
2014,09,04,01,30,9.10
2014,09,04,01,31,9.10
2014,09,04,01,32,9.10
2014,09,04,01,33,9.00
2014,09,04,01,34,9.00
2014,09,04,01,35,9.00
2014,09,04,01,36,9.00
2014,09,04,01,37,9.00
2014,09,04,01,38,9.00
2014,09,04,01,39,9.00
2014,09,04,01,40,9.00
2014,09,04,01,41,9.00
2014,09,04,01,42,9.00
2014,09,04,01,43,9.00
2014,09,04,01,44,9.00
2014,09,04,01,45,9.00
2014,09,04,01,46,9.00
2014,09,04,01,47,9.10
2014,09,04,01,48,9.10
2014,09,04,01,49,9.10
2014,09,04,01,50,9.10
2014,09,04,01,51,9.10
2014,09,04,01,52,9.10
2014,09,04,01,53,9.00
2014,09,04,01,54,9.00
2014,09,04,01,55,9.00
2014,09,04,01,56,9.00
2014,09,04,01,57,9.00
2014,09,04,01,58,8.90
2014,09,04,01,59,8.90
2014,09,04,02,00,8.90
2014,09,04,02,01,8.90
2014,09,04,02,02,8.90
2014,09,04,02,03,8.80
2014,09,04,02,04,8.80
2014,09,04,02,05,8.80
2014,09,04,02,06,8.80
2014,09,04,02,07,8.80
2014,09,04,02,08,8.70
2014,09,04,02,09,8.70
2014,09,04,02,10,8.70
2014,09,04,02,11,8.70
2014,09,04,02,12,8.70
2014,09,04,02,13,8.70
2014,09,04,02,14,8.70
2014,09,04,02,15,8.70
2014,09,04,02,16,8.70
2014,09,04,02,17,8.70
2014,09,04,02,18,8.70
2014,09,04,02,19,8.70
2014,09,04,02,20,8.70
2014,09,04,02,21,8.70
2014,09,04,02,22,8.70
2014,09,04,02,23,8.70
2014,09,04,02,24,8.70
2014,09,04,02,25,8.60
2014,09,04,02,26,8.60
2014,09,04,02,27,8.60
2014,09,04,02,28,8.60
2014,09,04,02,29,8.60
2014,09,04,02,30,8.60
2014,09,04,02,31,8.50
2014,09,04,02,32,8.50
2014,09,04,02,33,8.50
2014,09,04,02,34,8.50
2014,09,04,02,35,8.40
2014,09,04,02,36,8.40
2014,09,04,02,37,8.40
2014,09,04,02,38,8.40
2014,09,04,02,39,8.40
2014,09,04,02,40,8.40
2014,09,04,02,41,8.40
2014,09,04,02,42,8.40
2014,09,04,02,43,8.40
2014,09,04,02,44,8.40
2014,09,04,02,45,8.40
2014,09,04,02,46,8.40
2014,09,04,02,47,8.40
2014,09,04,02,48,8.40
2014,09,04,02,49,8.40
2014,09,04,02,50,8.40
2014,09,04,02,51,8.40
2014,09,04,02,52,8.40
2014,09,04,02,53,8.40
2014,09,04,02,54,8.40
2014,09,04,02,55,8.40
2014,09,04,02,56,8.40
2014,09,04,02,57,8.40
2014,09,04,02,58,8.40
2014,09,04,02,59,8.40
2014,09,04,03,00,8.40
2014,09,04,03,01,8.40
2014,09,04,03,02,8.40
2014,09,04,03,03,8.50
2014,09,04,03,04,8.50
2014,09,04,03,05,8.50
2014,09,04,03,06,8.50
2014,09,04,03,07,8.50
2014,09,04,03,08,8.50
2014,09,04,03,09,8.50
2014,09,04,03,10,8.50
2014,09,04,03,11,8.50
2014,09,04,03,12,8.50
2014,09,04,03,13,8.50
2014,09,04,03,14,8.50
2014,09,04,03,15,8.40
2014,09,04,03,16,8.40
2014,09,04,03,17,8.50
2014,09,04,03,18,8.40
2014,09,04,03,19,8.40
2014,09,04,03,20,8.40
2014,09,04,03,21,8.40
2014,09,04,03,22,8.40
2014,09,04,03,23,8.40
2014,09,04,03,24,8.40
2014,09,04,03,25,8.40
2014,09,04,03,26,8.40
2014,09,04,03,27,8.40
2014,09,04,03,28,8.40
2014,09,04,03,29,8.40
2014,09,04,03,30,8.40
2014,09,04,03,31,8.40
2014,09,04,03,32,8.40
2014,09,04,03,33,8.40
2014,09,04,03,34,8.40
2014,09,04,03,35,8.40
2014,09,04,03,36,8.40
2014,09,04,03,37,8.40
2014,09,04,03,38,8.40
2014,09,04,03,39,8.50
2014,09,04,03,40,8.50
2014,09,04,03,41,8.40
2014,09,04,03,42,8.40
2014,09,04,03,43,8.40
2014,09,04,03,44,8.30
2014,09,04,03,45,8.30
2014,09,04,03,46,8.30
2014,09,04,03,47,8.30
2014,09,04,03,48,8.30
2014,09,04,03,49,8.20
2014,09,04,03,50,8.20
2014,09,04,03,51,8.20
2014,09,04,03,52,8.20
2014,09,04,03,53,8.20
2014,09,04,03,54,8.20
2014,09,04,03,55,8.20
2014,09,04,03,56,8.20
2014,09,04,03,57,8.20
2014,09,04,03,58,8.10
2014,09,04,03,59,8.10
2014,09,04,04,00,8.10
2014,09,04,04,01,8.10
2014,09,04,04,02,8.10
2014,09,04,04,03,8.10
2014,09,04,04,04,8.10
2014,09,04,04,05,8.10
2014,09,04,04,06,8.10
2014,09,04,04,07,8.10
2014,09,04,04,08,8.10
2014,09,04,04,09,8.10
2014,09,04,04,10,8.10
2014,09,04,04,11,8.10
2014,09,04,04,12,8.00
2014,09,04,04,13,8.00
2014,09,04,04,14,8.00
2014,09,04,04,15,8.00
2014,09,04,04,16,8.00
2014,09,04,04,17,8.00
2014,09,04,04,18,7.90
2014,09,04,04,19,8.00
2014,09,04,04,20,8.00
2014,09,04,04,21,7.90
2014,09,04,04,22,7.90
2014,09,04,04,23,7.90
2014,09,04,04,24,7.90
2014,09,04,04,25,7.90
2014,09,04,04,26,7.90
2014,09,04,04,27,7.90
2014,09,04,04,28,7.90
2014,09,04,04,29,7.90
2014,09,04,04,30,7.90
2014,09,04,04,31,7.90
2014,09,04,04,32,7.90
2014,09,04,04,33,7.90
2014,09,04,04,34,7.90
2014,09,04,04,35,7.90
2014,09,04,04,36,7.90
2014,09,04,04,37,7.90
2014,09,04,04,38,7.90
2014,09,04,04,39,7.90
2014,09,04,04,40,7.90
2014,09,04,04,41,7.90
2014,09,04,04,42,7.90
2014,09,04,04,43,7.90
2014,09,04,04,44,7.90
2014,09,04,04,45,7.90
2014,09,04,04,46,7.90
2014,09,04,04,47,7.80
2014,09,04,04,48,7.80
2014,09,04,04,49,7.80
2014,09,04,04,50,7.80
2014,09,04,04,51,7.80
2014,09,04,04,52,7.70
2014,09,04,04,53,7.70
2014,09,04,04,54,7.70
2014,09,04,04,55,7.70
2014,09,04,04,56,7.70
2014,09,04,04,57,7.70
2014,09,04,04,58,7.70
2014,09,04,04,59,7.60
2014,09,04,05,00,7.60
2014,09,04,05,01,7.60
2014,09,04,05,02,7.60
2014,09,04,05,03,7.60
2014,09,04,05,04,7.70
2014,09,04,05,05,7.70
2014,09,04,05,06,7.70
2014,09,04,05,07,7.70
2014,09,04,05,08,7.70
2014,09,04,05,09,7.70
2014,09,04,05,10,7.70
2014,09,04,05,11,7.70
2014,09,04,05,12,7.70
2014,09,04,05,13,7.70
2014,09,04,05,14,7.70
2014,09,04,05,15,7.70
2014,09,04,05,16,7.70
2014,09,04,05,17,7.70
2014,09,04,05,18,7.70
2014,09,04,05,19,7.70
2014,09,04,05,20,7.70
2014,09,04,05,21,7.70
2014,09,04,05,22,7.70
2014,09,04,05,23,7.70
2014,09,04,05,24,7.70
2014,09,04,05,25,7.70
2014,09,04,05,26,7.70
2014,09,04,05,27,7.70
2014,09,04,05,28,7.70
2014,09,04,05,29,7.70
2014,09,04,05,30,7.70
2014,09,04,05,31,7.70
2014,09,04,05,32,7.70
2014,09,04,05,33,7.70
2014,09,04,05,34,7.70
2014,09,04,05,35,7.70
2014,09,04,05,36,7.70
2014,09,04,05,37,7.70
2014,09,04,05,38,7.70
2014,09,04,05,39,7.70
2014,09,04,05,40,7.70
2014,09,04,05,41,7.70
2014,09,04,05,42,7.70
2014,09,04,05,43,7.70
2014,09,04,05,44,7.80
2014,09,04,05,45,7.80
2014,09,04,05,46,7.70
2014,09,04,05,47,7.70
2014,09,04,05,48,7.70
2014,09,04,05,49,7.70
2014,09,04,05,50,7.60
2014,09,04,05,51,7.60
2014,09,04,05,52,7.60
2014,09,04,05,53,7.60
2014,09,04,05,54,7.50
2014,09,04,05,55,7.50
2014,09,04,05,56,7.40
2014,09,04,05,57,7.40
2014,09,04,05,58,7.40
2014,09,04,05,59,7.40
2014,09,04,06,00,7.30
2014,09,04,06,01,7.30
2014,09,04,06,02,7.30
2014,09,04,06,03,7.30
2014,09,04,06,04,7.30
2014,09,04,06,05,7.30
2014,09,04,06,06,7.30
2014,09,04,06,07,7.30
2014,09,04,06,08,7.40
2014,09,04,06,09,7.40
2014,09,04,06,10,7.40
2014,09,04,06,11,7.40
2014,09,04,06,12,7.40
2014,09,04,06,13,7.40
2014,09,04,06,14,7.40
2014,09,04,06,15,7.50
2014,09,04,06,16,7.50
2014,09,04,06,17,7.50
2014,09,04,06,18,7.60
2014,09,04,06,19,7.60
2014,09,04,06,20,7.60
2014,09,04,06,21,7.70
2014,09,04,06,22,7.70
2014,09,04,06,23,7.70
2014,09,04,06,24,7.70
2014,09,04,06,25,7.70
2014,09,04,06,26,7.70
2014,09,04,06,27,7.70
2014,09,04,06,28,7.70
2014,09,04,06,29,7.70
2014,09,04,06,30,7.70
2014,09,04,06,31,7.70
2014,09,04,06,32,7.70
2014,09,04,06,33,7.70
2014,09,04,06,34,7.70
2014,09,04,06,35,7.70
2014,09,04,06,36,7.70
2014,09,04,06,37,7.70
2014,09,04,06,38,7.70
2014,09,04,06,39,7.70
2014,09,04,06,40,7.70
2014,09,04,06,41,7.70
2014,09,04,06,42,7.70
2014,09,04,06,43,7.70
2014,09,04,06,44,7.70
2014,09,04,06,45,7.70
2014,09,04,06,46,7.70
2014,09,04,06,47,7.70
2014,09,04,06,48,7.70
2014,09,04,06,49,7.70
2014,09,04,06,50,7.80
2014,09,04,06,51,7.80
2014,09,04,06,52,7.80
2014,09,04,06,53,7.80
2014,09,04,06,54,7.70
2014,09,04,06,55,7.70
2014,09,04,06,56,7.70
2014,09,04,06,57,7.70
2014,09,04,06,58,7.70
2014,09,04,06,59,7.70
2014,09,04,07,00,7.70
2014,09,04,07,01,7.70
2014,09,04,07,02,7.70
2014,09,04,07,03,7.70
2014,09,04,07,04,7.70
2014,09,04,07,05,7.70
2014,09,04,07,06,7.70
2014,09,04,07,07,7.70
2014,09,04,07,08,7.70
2014,09,04,07,09,7.70
2014,09,04,07,10,7.80
2014,09,04,07,11,7.80
2014,09,04,07,12,7.80
2014,09,04,07,13,7.80
2014,09,04,07,14,7.80
2014,09,04,07,15,7.80
2014,09,04,07,16,7.80
2014,09,04,07,17,7.80
2014,09,04,07,18,7.80
2014,09,04,07,19,7.80
2014,09,04,07,20,7.80
2014,09,04,07,21,7.80
2014,09,04,07,22,7.90
2014,09,04,07,23,7.90
2014,09,04,07,24,7.90
2014,09,04,07,25,7.90
2014,09,04,07,26,8.00
2014,09,04,07,27,8.00
2014,09,04,07,28,8.10
2014,09,04,07,29,8.10
2014,09,04,07,30,8.20
2014,09,04,07,31,8.20
2014,09,04,07,32,8.30
2014,09,04,07,33,8.30
2014,09,04,07,34,8.30
2014,09,04,07,35,8.40
2014,09,04,07,36,8.40
2014,09,04,07,37,8.50
2014,09,04,07,38,8.60
2014,09,04,07,39,8.70
2014,09,04,07,40,8.80
2014,09,04,07,41,8.80
2014,09,04,07,42,8.90
2014,09,04,07,43,8.90
2014,09,04,07,44,9.00
2014,09,04,07,45,9.10
2014,09,04,07,46,9.10
2014,09,04,07,47,9.20
2014,09,04,07,48,9.20
2014,09,04,07,49,9.30
2014,09,04,07,50,9.30
2014,09,04,07,51,9.40
2014,09,04,07,52,9.40
2014,09,04,07,53,9.50
2014,09,04,07,54,9.50
2014,09,04,07,55,9.60
2014,09,04,07,56,9.70
2014,09,04,07,57,9.70
2014,09,04,07,58,9.80
2014,09,04,07,59,9.90
2014,09,04,08,00,10.00
2014,09,04,08,01,10.00
2014,09,04,08,02,10.10
2014,09,04,08,03,10.10
2014,09,04,08,04,10.20
2014,09,04,08,05,10.30
2014,09,04,08,06,10.40
2014,09,04,08,07,10.50
2014,09,04,08,08,10.60
2014,09,04,08,09,10.70
2014,09,04,08,10,10.80
2014,09,04,08,11,11.00
2014,09,04,08,12,11.10
2014,09,04,08,13,11.20
2014,09,04,08,14,11.30
2014,09,04,08,15,11.40
2014,09,04,08,16,11.60
2014,09,04,08,17,11.70
2014,09,04,08,18,11.70
2014,09,04,08,19,11.80
2014,09,04,08,20,11.70
2014,09,04,08,21,11.70
2014,09,04,08,22,11.70
2014,09,04,08,23,11.60
2014,09,04,08,24,11.60
2014,09,04,08,25,11.50
2014,09,04,08,26,11.50
2014,09,04,08,27,11.40
2014,09,04,08,28,11.40
2014,09,04,08,29,11.40
2014,09,04,08,30,11.40
2014,09,04,08,31,11.40
2014,09,04,08,32,11.40
2014,09,04,08,33,11.40
2014,09,04,08,34,11.40
2014,09,04,08,35,11.40
2014,09,04,08,36,11.50
2014,09,04,08,37,11.50
2014,09,04,08,38,11.60
2014,09,04,08,39,11.70
2014,09,04,08,40,11.70
2014,09,04,08,41,11.80
2014,09,04,08,42,11.90
2014,09,04,08,43,11.90
2014,09,04,08,44,12.00
2014,09,04,08,45,12.10
2014,09,04,08,46,12.10
2014,09,04,08,47,12.20
2014,09,04,08,48,12.20
2014,09,04,08,49,12.30
2014,09,04,08,50,12.30
2014,09,04,08,51,12.40
2014,09,04,08,52,12.40
2014,09,04,08,53,12.50
2014,09,04,08,54,12.50
2014,09,04,08,55,12.60
2014,09,04,08,56,12.60
2014,09,04,08,57,12.70
2014,09,04,08,58,12.70
2014,09,04,08,59,12.70
2014,09,04,09,00,12.80
2014,09,04,09,01,12.80
2014,09,04,09,02,12.90
2014,09,04,09,03,12.90
2014,09,04,09,04,13.00
2014,09,04,09,05,13.00
2014,09,04,09,06,13.10
2014,09,04,09,07,13.10
2014,09,04,09,08,13.20
2014,09,04,09,09,13.20
2014,09,04,09,10,13.30
2014,09,04,09,11,13.30
2014,09,04,09,12,13.30
2014,09,04,09,13,13.40
2014,09,04,09,14,13.40
2014,09,04,09,15,13.50
2014,09,04,09,16,13.50
2014,09,04,09,17,13.60
2014,09,04,09,18,13.60
2014,09,04,09,19,13.70
2014,09,04,09,20,13.70
2014,09,04,09,21,13.70
2014,09,04,09,22,13.80
2014,09,04,09,23,13.80
2014,09,04,09,24,13.90
2014,09,04,09,25,13.90
2014,09,04,09,26,13.90
2014,09,04,09,27,14.00
2014,09,04,09,28,14.00
2014,09,04,09,29,14.10
2014,09,04,09,30,14.10
2014,09,04,09,31,14.10
2014,09,04,09,32,14.10
2014,09,04,09,33,14.20
2014,09,04,09,34,14.20
2014,09,04,09,35,14.30
2014,09,04,09,36,14.40
2014,09,04,09,37,14.50
2014,09,04,09,38,14.60
2014,09,04,09,39,14.70
2014,09,04,09,40,14.80
2014,09,04,09,41,14.80
2014,09,04,09,42,14.90
2014,09,04,09,43,15.00
2014,09,04,09,44,15.00
2014,09,04,09,45,15.00
2014,09,04,09,46,15.00
2014,09,04,09,47,14.90
2014,09,04,09,48,14.90
2014,09,04,09,49,14.90
2014,09,04,09,50,14.90
2014,09,04,09,51,14.90
2014,09,04,09,52,14.90
2014,09,04,09,53,14.90
2014,09,04,09,54,14.90
2014,09,04,09,55,14.90
2014,09,04,09,56,14.90
2014,09,04,09,57,15.00
2014,09,04,09,58,15.00
2014,09,04,09,59,15.00
2014,09,04,10,00,15.00
2014,09,04,10,01,15.00
2014,09,04,10,02,15.00
2014,09,04,10,03,15.10
2014,09,04,10,04,15.10
2014,09,04,10,05,15.10
2014,09,04,10,06,15.20
2014,09,04,10,07,15.20
2014,09,04,10,08,15.20
2014,09,04,10,09,15.30
2014,09,04,10,10,15.30
2014,09,04,10,11,15.40
2014,09,04,10,12,15.40
2014,09,04,10,13,15.40
2014,09,04,10,14,15.50
2014,09,04,10,15,15.50
2014,09,04,10,16,15.60
2014,09,04,10,17,15.60
2014,09,04,10,18,15.70
2014,09,04,10,19,15.80
2014,09,04,10,20,15.80
2014,09,04,10,21,15.90
2014,09,04,10,22,15.90
2014,09,04,10,23,16.00
2014,09,04,10,24,16.00
2014,09,04,10,25,16.10
2014,09,04,10,26,16.10
2014,09,04,10,27,16.20
2014,09,04,10,28,16.20
2014,09,04,10,29,16.20
2014,09,04,10,30,16.20
2014,09,04,10,31,16.20
2014,09,04,10,32,16.20
2014,09,04,10,33,16.30
2014,09,04,10,34,16.30
2014,09,04,10,35,16.30
2014,09,04,10,36,16.30
2014,09,04,10,37,16.30
2014,09,04,10,38,16.20
2014,09,04,10,39,16.20
2014,09,04,10,40,16.30
2014,09,04,10,41,16.30
2014,09,04,10,42,16.30
2014,09,04,10,43,16.40
2014,09,04,10,44,16.40
2014,09,04,10,45,16.40
2014,09,04,10,46,16.40
2014,09,04,10,47,16.50
2014,09,04,10,48,16.50
2014,09,04,10,49,16.50
2014,09,04,10,50,16.50
2014,09,04,10,51,16.50
2014,09,04,10,52,16.40
2014,09,04,10,53,16.40
2014,09,04,10,54,16.50
2014,09,04,10,55,16.50
2014,09,04,10,56,16.60
2014,09,04,10,57,16.60
2014,09,04,10,58,16.70
2014,09,04,10,59,16.80
2014,09,04,11,00,16.90
2014,09,04,11,01,16.90
2014,09,04,11,02,17.00
2014,09,04,11,03,17.00
2014,09,04,11,04,17.10
2014,09,04,11,05,17.10
2014,09,04,11,06,17.10
2014,09,04,11,07,17.10
2014,09,04,11,08,17.00
2014,09,04,11,09,16.90
2014,09,04,11,10,16.90
2014,09,04,11,11,16.90
2014,09,04,11,12,16.90
2014,09,04,11,13,17.00
2014,09,04,11,14,17.00
2014,09,04,11,15,17.10
2014,09,04,11,16,17.10
2014,09,04,11,17,17.20
2014,09,04,11,18,17.20
2014,09,04,11,19,17.20
2014,09,04,11,20,17.20
2014,09,04,11,21,17.10
2014,09,04,11,22,17.10
2014,09,04,11,23,17.00
2014,09,04,11,24,16.90
2014,09,04,11,25,16.90
2014,09,04,11,26,16.90
2014,09,04,11,27,16.90
2014,09,04,11,28,16.90
2014,09,04,11,29,17.00
2014,09,04,11,30,17.10
2014,09,04,11,31,17.10
2014,09,04,11,32,17.10
2014,09,04,11,33,17.10
2014,09,04,11,34,17.20
2014,09,04,11,35,17.20
2014,09,04,11,36,17.10
2014,09,04,11,37,17.00
2014,09,04,11,38,16.80
2014,09,04,11,39,16.60
2014,09,04,11,40,16.50
2014,09,04,11,41,16.30
2014,09,04,11,42,16.20
2014,09,04,11,43,16.10
2014,09,04,11,44,16.00
2014,09,04,11,45,16.00
2014,09,04,11,46,16.00
2014,09,04,11,47,16.00
2014,09,04,11,48,16.00
2014,09,04,11,49,16.00
2014,09,04,11,50,16.10
2014,09,04,11,51,16.10
2014,09,04,11,52,16.20
2014,09,04,11,53,16.30
2014,09,04,11,54,16.40
2014,09,04,11,55,16.50
2014,09,04,11,56,16.60
2014,09,04,11,57,16.80
2014,09,04,11,58,16.80
2014,09,04,11,59,16.90
2014,09,04,12,00,17.00
2014,09,04,12,01,17.10
2014,09,04,12,02,17.10
2014,09,04,12,03,17.10
2014,09,04,12,04,17.10
2014,09,04,12,05,17.10
2014,09,04,12,06,17.00
2014,09,04,12,07,16.90
2014,09,04,12,08,16.90
2014,09,04,12,09,16.80
2014,09,04,12,10,16.80
2014,09,04,12,11,16.80
2014,09,04,12,12,16.90
2014,09,04,12,13,16.90
2014,09,04,12,14,17.00
2014,09,04,12,15,17.10
2014,09,04,12,16,17.10
2014,09,04,12,17,17.10
2014,09,04,12,18,17.10
2014,09,04,12,19,17.10
2014,09,04,12,20,17.10
2014,09,04,12,21,17.10
2014,09,04,12,22,17.10
2014,09,04,12,23,17.10
2014,09,04,12,24,17.10
2014,09,04,12,25,17.10
2014,09,04,12,26,17.00
2014,09,04,12,27,17.00
2014,09,04,12,28,17.00
2014,09,04,12,29,16.90
2014,09,04,12,30,16.90
2014,09,04,12,31,16.80
2014,09,04,12,32,16.80
2014,09,04,12,33,16.80
2014,09,04,12,34,16.80
2014,09,04,12,35,16.80
2014,09,04,12,36,16.80
2014,09,04,12,37,16.90
2014,09,04,12,38,16.90
2014,09,04,12,39,16.90
2014,09,04,12,40,16.90
2014,09,04,12,41,16.90
2014,09,04,12,42,17.00
2014,09,04,12,43,16.90
2014,09,04,12,44,16.90
2014,09,04,12,45,17.00
2014,09,04,12,46,17.00
2014,09,04,12,47,17.00
2014,09,04,12,48,17.00
2014,09,04,12,49,17.10
2014,09,04,12,50,17.10
2014,09,04,12,51,17.20
2014,09,04,12,52,17.20
2014,09,04,12,53,17.30
2014,09,04,12,54,17.30
2014,09,04,12,55,17.40
2014,09,04,12,56,17.40
2014,09,04,12,57,17.40
2014,09,04,12,58,17.40
2014,09,04,12,59,17.50
2014,09,04,13,00,17.50
2014,09,04,13,01,17.50
2014,09,04,13,02,17.50
2014,09,04,13,03,17.50
2014,09,04,13,04,17.50
2014,09,04,13,05,17.60
2014,09,04,13,06,17.60
2014,09,04,13,07,17.60
2014,09,04,13,08,17.70
2014,09,04,13,09,17.70
2014,09,04,13,10,17.80
2014,09,04,13,11,17.80
2014,09,04,13,12,17.90
2014,09,04,13,13,18.10
2014,09,04,13,14,18.20
2014,09,04,13,15,18.20
2014,09,04,13,16,18.30
2014,09,04,13,17,18.40
2014,09,04,13,18,18.40
2014,09,04,13,19,18.40
2014,09,04,13,20,18.40
2014,09,04,13,21,18.40
2014,09,04,13,22,18.40
2014,09,04,13,23,18.40
2014,09,04,13,24,18.40
2014,09,04,13,25,18.40
2014,09,04,13,26,18.50
2014,09,04,13,27,18.50
2014,09,04,13,28,18.60
2014,09,04,13,29,18.70
2014,09,04,13,30,18.80
2014,09,04,13,31,18.90
2014,09,04,13,32,19.00
2014,09,04,13,33,19.00
2014,09,04,13,34,19.10
2014,09,04,13,35,19.10
2014,09,04,13,36,19.20
2014,09,04,13,37,19.20
2014,09,04,13,38,19.20
2014,09,04,13,39,19.20
2014,09,04,13,40,19.20
2014,09,04,13,41,19.30
2014,09,04,13,42,19.30
2014,09,04,13,43,19.30
2014,09,04,13,44,19.30
2014,09,04,13,45,19.30
2014,09,04,13,46,19.30
2014,09,04,13,47,19.40
2014,09,04,13,48,19.40
2014,09,04,13,49,19.30
2014,09,04,13,50,19.30
2014,09,04,13,51,19.30
2014,09,04,13,52,19.30
2014,09,04,13,53,19.30
2014,09,04,13,54,19.30
2014,09,04,13,55,19.30
2014,09,04,13,56,19.40
2014,09,04,13,57,19.40
2014,09,04,13,58,19.40
2014,09,04,13,59,19.50
2014,09,04,14,00,19.60
2014,09,04,14,01,19.60
2014,09,04,14,02,19.70
2014,09,04,14,03,19.70
2014,09,04,14,04,19.70
2014,09,04,14,05,19.70
2014,09,04,14,06,19.70
2014,09,04,14,07,19.70
2014,09,04,14,08,19.70
2014,09,04,14,09,19.70
2014,09,04,14,10,19.70
2014,09,04,14,11,19.70
2014,09,04,14,12,19.80
2014,09,04,14,13,19.80
2014,09,04,14,14,19.80
2014,09,04,14,15,19.80
2014,09,04,14,16,19.80
2014,09,04,14,17,19.80
2014,09,04,14,18,19.80
2014,09,04,14,19,19.80
2014,09,04,14,20,19.80
2014,09,04,14,21,19.90
2014,09,04,14,22,19.90
2014,09,04,14,23,19.90
2014,09,04,14,24,20.00
2014,09,04,14,25,20.10
2014,09,04,14,26,20.10
2014,09,04,14,27,20.10
2014,09,04,14,28,20.10
2014,09,04,14,29,20.20
2014,09,04,14,30,20.20
2014,09,04,14,31,20.20
2014,09,04,14,32,20.30
2014,09,04,14,33,20.30
2014,09,04,14,34,20.30
2014,09,04,14,35,20.30
2014,09,04,14,36,20.30
2014,09,04,14,37,20.30
2014,09,04,14,38,20.30
2014,09,04,14,39,20.10
2014,09,04,14,40,19.90
2014,09,04,14,41,19.80
2014,09,04,14,42,19.60
2014,09,04,14,43,19.50
2014,09,04,14,44,19.50
2014,09,04,14,45,19.50
2014,09,04,14,46,19.50
2014,09,04,14,47,19.50
2014,09,04,14,48,19.60
2014,09,04,14,49,19.60
2014,09,04,14,50,19.60
2014,09,04,14,51,19.60
2014,09,04,14,52,19.70
2014,09,04,14,53,19.70
2014,09,04,14,54,19.70
2014,09,04,14,55,19.80
2014,09,04,14,56,19.80
2014,09,04,14,57,19.80
2014,09,04,14,58,19.70
2014,09,04,14,59,19.60
2014,09,04,15,00,19.60
2014,09,04,15,01,19.60
2014,09,04,15,02,19.70
2014,09,04,15,03,19.70
2014,09,04,15,04,19.70
2014,09,04,15,05,19.60
2014,09,04,15,06,19.60
2014,09,04,15,07,19.60
2014,09,04,15,08,19.60
2014,09,04,15,09,19.50
2014,09,04,15,10,19.50
2014,09,04,15,11,19.40
2014,09,04,15,12,19.40
2014,09,04,15,13,19.40
2014,09,04,15,14,19.40
2014,09,04,15,15,19.40
2014,09,04,15,16,19.50
2014,09,04,15,17,19.60
2014,09,04,15,18,19.60
2014,09,04,15,19,19.70
2014,09,04,15,20,19.70
2014,09,04,15,21,19.70
2014,09,04,15,22,19.80
2014,09,04,15,23,19.80
2014,09,04,15,24,19.90
2014,09,04,15,25,19.90
2014,09,04,15,26,20.00
2014,09,04,15,27,20.00
2014,09,04,15,28,19.90
2014,09,04,15,29,19.80
2014,09,04,15,30,19.80
2014,09,04,15,31,19.70
2014,09,04,15,32,19.70
2014,09,04,15,33,19.70
2014,09,04,15,34,19.70
2014,09,04,15,35,19.80
2014,09,04,15,36,19.80
2014,09,04,15,37,19.80
2014,09,04,15,38,19.80
2014,09,04,15,39,19.80
2014,09,04,15,40,19.80
2014,09,04,15,41,19.80
2014,09,04,15,42,19.80
2014,09,04,15,43,19.90
2014,09,04,15,44,19.90
2014,09,04,15,45,19.90
2014,09,04,15,46,20.00
2014,09,04,15,47,20.00
2014,09,04,15,48,20.00
2014,09,04,15,49,19.90
2014,09,04,15,50,19.90
2014,09,04,15,51,19.90
2014,09,04,15,52,19.80
2014,09,04,15,53,19.80
2014,09,04,15,54,19.80
2014,09,04,15,55,19.70
2014,09,04,15,56,19.70
2014,09,04,15,57,19.70
2014,09,04,15,58,19.70
2014,09,04,15,59,19.80
2014,09,04,16,00,19.80
2014,09,04,16,01,19.80
2014,09,04,16,02,19.80
2014,09,04,16,03,19.70
2014,09,04,16,04,19.70
2014,09,04,16,05,19.70
2014,09,04,16,06,19.70
2014,09,04,16,07,19.70
2014,09,04,16,08,19.70
2014,09,04,16,09,19.70
2014,09,04,16,10,19.80
2014,09,04,16,11,19.80
2014,09,04,16,12,19.90
2014,09,04,16,13,19.90
2014,09,04,16,14,20.00
2014,09,04,16,15,20.10
2014,09,04,16,16,20.20
2014,09,04,16,17,20.20
2014,09,04,16,18,20.20
2014,09,04,16,19,20.30
2014,09,04,16,20,20.30
2014,09,04,16,21,20.30
2014,09,04,16,22,20.30
2014,09,04,16,23,20.30
2014,09,04,16,24,20.30
2014,09,04,16,25,20.30
2014,09,04,16,26,20.30
2014,09,04,16,27,20.30
2014,09,04,16,28,20.30
2014,09,04,16,29,20.30
2014,09,04,16,30,20.30
2014,09,04,16,31,20.20
2014,09,04,16,32,20.20
2014,09,04,16,33,20.20
2014,09,04,16,34,20.20
2014,09,04,16,35,20.10
2014,09,04,16,36,20.10
2014,09,04,16,37,20.10
2014,09,04,16,38,20.10
2014,09,04,16,39,20.10
2014,09,04,16,40,20.10
2014,09,04,16,41,20.10
2014,09,04,16,42,20.20
2014,09,04,16,43,20.20
2014,09,04,16,44,20.20
2014,09,04,16,45,20.20
2014,09,04,16,46,20.30
2014,09,04,16,47,20.30
2014,09,04,16,48,20.30
2014,09,04,16,49,20.30
2014,09,04,16,50,20.30
2014,09,04,16,51,20.40
2014,09,04,16,52,20.40
2014,09,04,16,53,20.30
2014,09,04,16,54,20.30
2014,09,04,16,55,20.20
2014,09,04,16,56,20.20
2014,09,04,16,57,20.10
2014,09,04,16,58,20.10
2014,09,04,16,59,20.10
2014,09,04,17,00,20.10
2014,09,04,17,01,20.00
2014,09,04,17,02,20.00
2014,09,04,17,03,20.00
2014,09,04,17,04,20.00
2014,09,04,17,05,20.00
2014,09,04,17,06,20.00
2014,09,04,17,07,19.90
2014,09,04,17,08,19.90
2014,09,04,17,09,19.90
2014,09,04,17,10,19.90
2014,09,04,17,11,20.00
2014,09,04,17,12,20.00
2014,09,04,17,13,20.00
2014,09,04,17,14,19.90
2014,09,04,17,15,19.90
2014,09,04,17,16,19.90
2014,09,04,17,17,19.90
2014,09,04,17,18,19.80
2014,09,04,17,19,19.80
2014,09,04,17,20,19.80
2014,09,04,17,21,19.70
2014,09,04,17,22,19.70
2014,09,04,17,23,19.60
2014,09,04,17,24,19.50
2014,09,04,17,25,19.50
2014,09,04,17,26,19.40
2014,09,04,17,27,19.40
2014,09,04,17,28,19.30
2014,09,04,17,29,19.30
2014,09,04,17,30,19.30
2014,09,04,17,31,19.20
2014,09,04,17,32,19.10
2014,09,04,17,33,19.10
2014,09,04,17,34,19.00
2014,09,04,17,35,18.90
2014,09,04,17,36,18.90
2014,09,04,17,37,18.90
2014,09,04,17,38,18.90
2014,09,04,17,39,18.90
2014,09,04,17,40,18.90